Location: Beuvrequen
(50.8014°N, 1.6652°E)
Time: 17:05:27
(UTC+00:00)

Cosmos 1844 - Pass Details

Date: 01 June 2022
Orbit: 821 x 869 km, 70.9° (Epoch: 29 June)

Event Time Altitude Azimuth Distance (km) Brightness Sun altitude
Rises 23:00:29 0° 319° (NW) 3,466 8.0 -16.2°
Reaches altitude 10° 23:03:49 10° 300° (WNW) 2,522 6.7 -16.3°
Maximum altitude 23:07:21 17° 262° (W) 2,069 5.8 -16.4°
Drops below altitude 10° 23:10:52 10° 224° (SW) 2,504 5.8 -16.5°
Enters shadow 23:11:04 - 222° (SW) 2,551 5.8 -16.5°
